Regional Weather Roundup
Issued by NWS Cleveland, OH

Home | Current Version | Previous Version | Graphics & Text | Print | Product List | Glossary On
Versions: 1 2 3 4 5 6 7 8 9 10 11 12 13 14 15 16 17 18 19 20 21 22 23 24 25 26 27 28 29 30 31 32 33 34 35 36 37 38 39 40 41 42 43 44 45 46 47 48 49 50
000
ASUS41 KCLE 230110
RWRCLE
OHIO REGIONAL WEATHER ROUNDUP
NATIONAL WEATHER SERVICE CLEVELAND, OH
800 PM EST MON DEC 22 2014

NOTE: "FAIR" INDICATES FEW OR NO CLOUDS BELOW 12,000 FEET WITH NO
SIGNIFICANT WEATHER AND/OR OBSTRUCTIONS TO VISIBILITY.

OHZ001>008-015>018-024>027-034-035-043-044-230200-
   NORTHWEST OHIO

CITY           SKY/WX    TMP DP  RH WIND       PRES   REMARKS
DEFIANCE       LGT RAIN  37  32  82 E10       29.84F
FINDLAY        CLOUDY    40  33  76 E9        29.84F
TOLEDO EXPRESS CLOUDY    37  32  82 E8        29.87F
TOLEDO EXEC    CLOUDY    37  32  82 E6        29.89F
LIMA           LGT RAIN  43  35  73 E9        29.82F
$$

OHZ009>014-019>023-028>033-038-089-230200-
   NORTHEAST OHIO

CITY           SKY/WX    TMP DP  RH WIND       PRES   REMARKS
CLE-HOPKINS    MOCLDY    39  30  70 SE12      29.94F
CLE-LAKEFRONT  MOCLDY    41  30  65 SE13G20   29.91F
CUY CO. ARPT   MOCLDY    39  32  75 SE12      29.94R
LORAIN-ELYRIA  MOCLDY    37  31  78 SE8       29.92R
ASHTABULA      PTCLDY    35  27  72 SE10      29.97F WCI  27
AKRON-CANTON   CLOUDY    39  30  70 E9        29.92F
WOOSTER        CLOUDY    37  31  78 E8        29.91S
MANSFIELD      CLOUDY    39  33  79 E10       29.87F
YOUNGSTOWN     CLOUDY    36  28  73 E13       29.95S
$$

OHZ042-051>053-060>062-070>072-077>081-230200-
  SOUTHWEST OHIO

CITY           SKY/WX    TMP DP  RH WIND       PRES   REMARKS
CINC-COVINGTON CLOUDY    49  37  63 SE9       29.77F
CINC-LUNKEN    MOCLDY    47  38  71 NE5       29.80F
HAMILTON       CLOUDY    47  38  71 E6        29.80F
DAYTON         CLOUDY    46  37  71 SE13      29.80F
WRIGHT-PAT AFB CLOUDY    46  37  71 E8        29.80F
DAYTON GENERAL CLOUDY    46  37  71 E8        29.78F
WILMINGTON     CLOUDY    43  35  73 E8        29.80F
$$

OHZ036-037-039>041-045>050-054>059-063>069-073>076-082>088-230200-
  CENTRAL AND SOUTHEAST OHIO

CITY           SKY/WX    TMP DP  RH WIND       PRES   REMARKS
COLUMBUS       CLOUDY    47  34  60 E10G18    29.84F
OSU AIRPORT    CLOUDY    47  35  63 E12       29.83F
BOLTON FIELD   CLOUDY    45  37  72 E7        29.84F
RICKENBACK AFB CLOUDY    43  36  74 E3        29.84F
NEWARK         CLOUDY    44  34  67 NE6       29.87S
MARION         CLOUDY    42  33  70 SE8       29.86F
LANCASTER      CLOUDY    55  36  48 E6        29.86F
ZANESVILLE     CLOUDY    46  34  62 E6        29.89R
NEW PHILLY     CLOUDY    43  32  65 E5        29.91F
$$


USA.gov is the U.S. government's official web portal to all federal, state and local government web resources and services.